Simultaneous Nadir Overpasses (SNOs) Predictions

Prediction of SNOs between GOES-16 and NOAA-20 Satellite Orbit:

Table of predicted SNOs for the next 14.0 days since TLE Epoch: 8/26/2023
Index Date Time (GOES-16) GOES-16 Lat,Lon NOAA-20 Lat,Lon Distance(km) Time Diff (sec)
1 08/27/2023 06:39:37 0.06, -75.21 0.73, -78.09 328.52 80
2 08/28/2023 06:18:13 0.05, -75.22 -0.32, -73.57 188.10 80
3 08/29/2023 18:40:08 -0.05, -75.22 -0.87, -78.87 415.82 80
4 08/30/2023 18:24:03 -0.05, -75.23 0.18, -74.34 101.45 80
5 09/01/2023 06:45:50 0.04, -75.25 1.04, -79.60 497.40 80
6 09/02/2023 06:24:25 0.04, -75.26 -0.01, -75.08 20.45 80
7 09/04/2023 18:27:35 -0.04, -75.29 -0.17, -75.85 63.79 80
8 09/05/2023 18:11:30 -0.04, -75.31 0.83, -71.31 454.45 80
9 09/07/2023 06:33:17 0.03, -75.33 0.33, -76.59 143.21 80
10 09/08/2023 06:11:52 0.03, -75.35 -0.73, -72.06 375.16 80
